Weather History for Daviess Cnty AP, Washington,, IN

Change the Weather History Date:

Friday, March 7, 2014

  Actual Average (KLWV) Record (KLWV)
Temperature  
Mean Temperature 40 °F 42 °F  
Max Temperature 54 °F 52 °F 76 °F (2009)
Min Temperature 25 °F 32 °F 24 °F (1999)
Degree Days  
Heating Degree Days 26 23  
Month to date heating degree days 168  
Since 1 July heating degree days 3843  
Cooling Degree Days 0 0  
Month to date cooling degree days 0  
Year to date cooling degree days 0  
Moisture  
Dew Point 31 °F    
Average Humidity 76    
Maximum Humidity 99    
Minimum Humidity 47    
Precipitation  
Precipitation 0.00 in 0.08 in 0.53 in (1978)
Month to date precipitation 0.56  
Year to date precipitation 4.95  
Sea Level Pressure  
Sea Level Pressure 30.02 in    
Wind  
Wind Speed 1 mph (SW)    
Max Wind Speed 9 mph    
Max Gust Speed -    
Visibility 9 miles    
Events      
T = Trace of Precipitation, MM = Missing Value Source: NWS Daily Summary

Daily Weather History Graph

Daily Weather History Graph

Search for Another Location

Airport:

Trip Planner

Search our weather history database for the weather conditions in past years. The results will help you decide how hot, cold, wet, or windy it might be!

Date:

Astronomy

Mar. 07, 2014 Rise Set
Actual Time 7:11 AM EST 6:47 PM EST
Civil Twilight 6:45 AM EST 7:14 PM EST
Nautical Twilight 6:14 AM EST 7:44 PM EST
Astronomical Twilight 5:43 AM EST 8:15 PM EST
Moon 11:08 AM EST (3/7) 12:48 AM EST (3/7)
Length of Visible Light 12h 28m
Length of Day
11h 35m
Waxing Crescent, 42% of the Moon is Illuminated
Mar 7
Waxing Crescent
Mar 8
First Quarter
Mar 16
Full
Mar 23
Last Quarter
Mar 30
New

Hourly Weather History & Observations

Time (EST) Temp. Windchill Dew Point Humidity Pressure Visibility Wind Dir Wind Speed Gust Speed Precip Events Conditions
12:15 AM 30.7 °F - 25.3 °F 80% 30.08 in 10.0 mi Calm Calm - N/A   Clear
12:35 AM 29.5 °F - 24.8 °F 83% 30.07 in 10.0 mi Calm Calm - N/A   Clear
12:55 AM 29.1 °F - 27.1 °F 92% 30.07 in 10.0 mi Calm Calm - N/A   Clear
1:15 AM 27.3 °F - 25.3 °F 92% 30.06 in 10.0 mi Calm Calm - N/A   Clear
1:35 AM 27.5 °F - 25.5 °F 92% 30.06 in 10.0 mi Calm Calm - N/A   Clear
1:55 AM 28.6 °F - 26.1 °F 90% 30.06 in 10.0 mi Calm Calm - N/A   Clear
2:15 AM 29.5 °F - 27.0 °F 90% 30.05 in 10.0 mi Calm Calm - N/A   Clear
2:35 AM 29.5 °F - 25.3 °F 85% 30.05 in 10.0 mi Calm Calm - N/A   Clear
2:55 AM 27.5 °F - 24.6 °F 89% 30.04 in 10.0 mi Calm Calm - N/A   Clear
3:15 AM 28.2 °F - 24.1 °F 84% 30.04 in 10.0 mi Calm Calm - N/A   Clear
3:35 AM 28.6 °F - 24.8 °F 86% 30.04 in 7.0 mi Calm Calm - N/A   Clear
3:55 AM 26.1 °F - 23.2 °F 89% 30.04 in 7.0 mi Calm Calm - N/A   Clear
4:15 AM 29.3 °F - 23.9 °F 80% 30.04 in 10.0 mi Calm Calm - N/A   Clear
4:35 AM 27.5 °F - 25.0 °F 90% 30.05 in 10.0 mi Calm Calm - N/A   Clear
4:55 AM 28.2 °F - 25.7 °F 90% 30.04 in 7.0 mi Calm Calm - N/A   Clear
5:15 AM 27.0 °F - 24.8 °F 92% 30.04 in 10.0 mi Calm Calm - N/A   Clear
5:35 AM 26.1 °F 21.9 °F 24.8 °F 95% 30.05 in 7.0 mi NW 3.5 mph - N/A   Clear
5:55 AM 26.4 °F - 25.2 °F 95% 30.04 in 7.0 mi Calm Calm - N/A   Clear
6:15 AM 25.7 °F - 24.4 °F 95% 30.05 in 7.0 mi Calm Calm - N/A   Clear
6:35 AM 26.4 °F - 25.7 °F 97% 30.04 in 5.0 mi Calm Calm - N/A   Clear
6:55 AM 26.6 °F - 26.2 °F 99% 30.04 in 5.0 mi Calm Calm - N/A   Clear
7:15 AM 26.6 °F - 26.1 °F 98% 30.04 in 4.0 mi Calm Calm - N/A   Clear
7:35 AM 27.0 °F - 26.1 °F 96% 30.04 in 7.0 mi Calm Calm - N/A   Clear
7:55 AM 29.1 °F - 27.3 °F 93% 30.04 in 5.0 mi Calm Calm - N/A   Clear
8:15 AM 30.7 °F - 28.0 °F 90% 30.05 in 7.0 mi Calm Calm - N/A   Clear
8:35 AM 31.8 °F - 27.3 °F 83% 30.05 in 7.0 mi Calm Calm - N/A   Clear
8:55 AM 32.9 °F - 28.4 °F 84% 30.05 in 7.0 mi Calm Calm - N/A   Clear
9:15 AM 34.2 °F - 29.3 °F 82% 30.05 in 7.0 mi Calm Calm - N/A   Clear
9:35 AM 35.8 °F - 30.0 °F 80% 30.05 in 10.0 mi Calm Calm - N/A   Clear
9:55 AM 37.6 °F 35.1 °F 31.3 °F 78% 30.05 in 10.0 mi South 3.5 mph - N/A   Clear
10:15 AM 39.2 °F - 32.0 °F 75% 30.05 in 10.0 mi Calm Calm - N/A   Clear
10:35 AM 41.0 °F - 32.5 °F 72% 30.06 in 10.0 mi Calm Calm - N/A   Clear
10:55 AM 43.0 °F - 32.4 °F 66% 30.06 in 10.0 mi Calm Calm - N/A   Clear
11:15 AM 44.8 °F - 33.4 °F 64% 30.06 in 10.0 mi Calm Calm - N/A   Clear
11:35 AM 45.1 °F - 32.4 °F 61% 30.05 in 10.0 mi Calm Calm - N/A   Clear
11:55 AM 46.9 °F - 33.4 °F 59% 30.05 in 10.0 mi Calm Calm - N/A   Clear
12:15 PM 47.3 °F - 32.5 °F 57% 30.05 in 10.0 mi Calm Calm - N/A   Clear
12:35 PM 48.7 °F - 32.9 °F 54% 30.04 in 10.0 mi Calm Calm - N/A   Clear
12:55 PM 49.6 °F - 32.5 °F 52% 30.04 in 10.0 mi West 6.9 mph - N/A   Clear
1:15 PM 49.8 °F - 32.7 °F 52% 30.03 in 10.0 mi West 5.8 mph - N/A   Clear
1:35 PM 50.5 °F - 34.2 °F 53% 30.02 in 10.0 mi West 4.6 mph - N/A   Clear
1:55 PM 50.9 °F - 34.3 °F 53% 30.00 in 10.0 mi WNW 3.5 mph - N/A   Clear
2:15 PM 51.8 °F - 33.8 °F 50% 29.99 in 10.0 mi Calm Calm - N/A   Clear
2:35 PM 52.7 °F - 33.6 °F 48% 29.99 in 10.0 mi SSW 3.5 mph - N/A   Clear
2:55 PM 52.7 °F - 33.1 °F 47% 29.98 in 10.0 mi Calm Calm - N/A   Clear
3:15 PM 53.6 °F - 34.9 °F 49% 29.98 in 10.0 mi SW 5.8 mph - N/A   Clear
3:35 PM 54.0 °F - 36.1 °F 51% 29.98 in 10.0 mi WSW 6.9 mph - N/A   Clear
3:55 PM 54.1 °F - 36.7 °F 52% 29.97 in 10.0 mi WSW 8.1 mph - N/A   Clear
4:15 PM 54.0 °F - 37.0 °F 53% 29.97 in 10.0 mi SSW 5.8 mph - N/A   Clear
4:35 PM 53.8 °F - 36.7 °F 52% 29.96 in 10.0 mi SW 4.6 mph - N/A   Clear
4:55 PM 53.6 °F - 36.9 °F 53% 29.96 in 10.0 mi SW 8.1 mph - N/A   Clear
5:15 PM 52.0 °F - 36.9 °F 56% 29.96 in 10.0 mi SW 9.2 mph - N/A   Clear
5:35 PM 51.1 °F - 37.2 °F 59% 29.96 in 10.0 mi SW 8.1 mph - N/A   Clear
5:55 PM 48.9 °F - 37.4 °F 64% 29.96 in 10.0 mi SW 5.8 mph - N/A   Clear
6:15 PM 47.1 °F - 37.2 °F 68% 29.96 in 10.0 mi SW 5.8 mph - N/A   Clear
6:35 PM 45.7 °F 42.7 °F 37.0 °F 72% 29.96 in 10.0 mi SW 5.8 mph - N/A   Clear
6:55 PM 43.9 °F 41.3 °F 36.3 °F 75% 29.96 in 10.0 mi SSW 4.6 mph - N/A   Clear
7:15 PM 42.1 °F 40.2 °F 35.6 °F 78% 29.96 in 10.0 mi SSW 3.5 mph - N/A   Clear
7:35 PM 40.6 °F 37.5 °F 35.4 °F 82% 29.96 in 10.0 mi SW 4.6 mph - N/A   Clear
7:55 PM 41.7 °F 38.8 °F 35.4 °F 78% 29.96 in 10.0 mi SW 4.6 mph - N/A   Clear
8:15 PM 37.8 °F 35.3 °F 33.8 °F 86% 29.96 in 10.0 mi SSW 3.5 mph - N/A   Clear
8:35 PM 36.5 °F 33.9 °F 33.1 °F 87% 29.97 in 10.0 mi SSE 3.5 mph - N/A   Clear
8:55 PM 35.2 °F - 32.7 °F 91% 29.97 in 7.0 mi Calm Calm - N/A   Clear
9:15 PM 36.5 °F 32.7 °F 33.6 °F 89% 29.97 in 7.0 mi South 4.6 mph - N/A   Clear
9:35 PM 36.1 °F 32.3 °F 33.4 °F 90% 29.98 in 7.0 mi South 4.6 mph - N/A   Clear
9:55 PM 38.5 °F - 34.9 °F 87% 29.99 in 7.0 mi Calm Calm - N/A   Clear
10:15 PM 38.1 °F - 34.0 °F 85% 29.99 in 10.0 mi Calm Calm - N/A   Clear
10:35 PM 37.9 °F 32.7 °F 34.0 °F 86% 30.00 in 7.0 mi SW 6.9 mph - N/A   Clear
10:55 PM 40.8 °F 36.2 °F 35.1 °F 80% 30.00 in 10.0 mi SW 6.9 mph - N/A   Clear
11:15 PM 42.8 °F 37.5 °F 35.6 °F 76% 30.00 in 10.0 mi SW 9.2 mph - N/A   Clear
11:35 PM 42.1 °F 37.1 °F 35.4 °F 77% 30.00 in 10.0 mi SW 8.1 mph - N/A   Clear
11:55 PM 41.0 °F 37.1 °F 35.1 °F 79% 30.00 in 10.0 mi SW 5.8 mph - N/A   Clear